Spokane Felts, WA
on Sunday, December 23, 2012

Sunday
Previous Day Next Day
Daily Summary
 ActualAverageRecord
Temperature
Mean Temperature °F 29°F  
Max Temperature 42°F 35°F 51°F (1996)
Min Temperature 32°F 23°F 9°F (2008)
Degree Days
Heating Degree Days 28 36  
Month to date heating degree days 613 807  
Since 1 July heating degree days 1886 2381  
Cooling Degree Days 0 0  
Month to date cooling degree days 0 0  
Year to date cooling degree days 509 406  
Moisture
Dew Point 29°F   
Average Humidity 72    
Maximum Humidity 89    
Minimum Humidity 55    
Precipitation
Precipitation 0.08 in 0.09 in 0.47 in (2007)
Month to date precipitation 1.45 1.94  
Year to date precipitation 20.21 17.16  
Wind
Wind Speed 6 mph   
Max Wind Speed 17 mph   
Max Gust Speed 22 mph   
Visibility 8 miles   
Events Rain , Snow   

Key: T is trace of precipitation, MM is missing value
Source: NWS Daily Summary
Time(PST)TemperatureDew PointHumidity Pressure Visibility Wind DirectionWind SpeedGust SpeedPrecipitationEvents Conditions
12:53 AM 34.0°F 28.9°F 82% 29.86 in 10.0 miles NE 3.5 mph - N/A   Mostly Cloudy
1:53 AM 36.0°F 30.0°F 79% 29.87 in 10.0 miles Calm Calm - N/A   Overcast
2:53 AM 37.0°F 30.0°F 76% 29.88 in 10.0 miles ENE 3.5 mph - 0.00 in   Overcast
3:53 AM 36.0°F 30.0°F 79% 29.90 in 10.0 miles Calm Calm - N/A   Overcast
4:53 AM 35.1°F 28.9°F 78% 29.89 in 10.0 miles Calm Calm - N/A   Scattered Clouds
5:53 AM 35.1°F 28.9°F 78% 29.91 in 10.0 miles NE 3.5 mph - N/A   Mostly Cloudy
6:53 AM 35.1°F 28.9°F 78% 29.91 in 10.0 miles NNE 3.5 mph - N/A   Mostly Cloudy
7:53 AM 36.0°F 28.0°F 73% 29.91 in 10.0 miles NE 3.5 mph - N/A   Scattered Clouds
8:53 AM 37.0°F 28.0°F 70% 29.92 in 10.0 miles Calm Calm - N/A   Overcast
9:53 AM 39.0°F 28.9°F 67% 29.91 in 10.0 miles ESE 5.8 mph - N/A   Clear
10:53 AM 41.0°F 28.9°F 62% 29.89 in 10.0 miles East 8.1 mph - N/A   Clear
11:53 AM 42.1°F 28.9°F 60% 29.83 in 10.0 miles East 11.5 mph - N/A   Clear
12:53 PM 42.1°F 28.9°F 60% 29.80 in 10.0 miles East 13.8 mph - N/A   Partly Cloudy
1:53 PM 41.0°F 28.9°F 62% 29.77 in 10.0 miles East 9.2 mph - N/A   Clear
2:53 PM 39.9°F 28.9°F 65% 29.73 in 10.0 miles East 11.5 mph - N/A   Clear
3:53 PM 39.9°F 28.0°F 63% 29.73 in 10.0 miles ENE 10.4 mph - N/A   Clear
4:53 PM 41.0°F 26.1°F 55% 29.70 in 10.0 miles East 8.1 mph - N/A   Mostly Cloudy
5:53 PM 39.9°F 26.1°F 58% 29.66 in 10.0 miles East 8.1 mph - N/A   Overcast
6:53 PM 39.0°F 27.0°F 62% 29.64 in 10.0 miles Calm Calm - N/A   Overcast
7:53 PM 39.0°F 28.0°F 65% 29.65 in 10.0 miles East 6.9 mph - N/A   Overcast
8:08 PM 37.4°F 28.4°F 70% 29.62 in 9.0 miles East 11.5 mph 20.7 mph 0.00 in Rain Light Rain
8:53 PM 36.0°F 30.0°F 79% 29.64 in 10.0 miles ENE 12.7 mph - 0.01 in   Overcast
9:53 PM 36.0°F 30.9°F 82% 29.63 in 9.0 miles ENE 9.2 mph - 0.02 in   Overcast
10:51 PM 33.8°F 30.2°F 87% 29.61 in 2.5 miles ENE 4.6 mph - 0.03 in Snow Light Snow
10:53 PM 34.0°F 30.0°F 85% 29.65 in 2.5 miles ENE 5.8 mph - 0.03 in Snow Light Snow
11:00 PM 33.8°F 30.2°F 87% 29.61 in 1.8 miles ENE 5.8 mph - 0.01 in Snow Light Snow
11:11 PM 33.8°F 30.2°F 87% 29.62 in 2.0 miles East 3.5 mph - 0.01 in Snow Light Snow
11:23 PM 33.8°F 30.2°F 87% 29.62 in 1.5 miles ESE 3.5 mph - 0.02 in Snow Light Snow
11:34 PM 33.8°F 30.2°F 87% 29.63 in 1.2 miles SE 4.6 mph - 0.02 in Snow Light Snow
11:49 PM 33.8°F 30.2°F 87% 29.63 in 1.0 miles SE 4.6 mph - 0.02 in Snow Light Snow
11:53 PM 33.1°F 30.0°F 89% 29.66 in 1.0 miles SE 6.9 mph - 0.02 in Snow Light Snow
11:55 PM 33.8°F 30.2°F 87% 29.63 in 0.8 miles East 9.2 mph - 0.00 in Snow Light Snow
Moon Phase
Dec. 23 Dec. 28 Jan. 04 Jan. 11 Jan. 18
Sunrise:07:36 AM (PST) Moon Rise:01:02 PM (PST)
Sunset:04:01 PM (PST) Moon Set:03:13 AM (PST)

Copyright © 2014 The Weather Underground, Inc.